Regional Weather Roundup
Issued by NWS

Home | Current Version | Previous Version | Text Only | Print | Product List | Glossary On
Versions: 1 2 3 4 5 6 7 8 9 10 11 12 13 14 15 16 17 18 19 20 21 22 23 24 25 26 27 28 29 30 31 32 33 34 35 36 37 38 39 40 41 42 43 44 45 46 47 48 49 50
000
ASUS43 KLMK 231702
RWRKY
KENTUCKY REGIONAL WEATHER ROUNDUP
NATIONAL WEATHER SERVICE LOUISVILLE KY
100 PM EDT SAT SEP 23 2017

NOTE "FAIR" INDICATES FEW OR NO CLOUDS BELOW 12,000 FEET
WITH NO SIGNIFICANT WEATHER AND/OR OBSTRUCTIONS TO VISIBILITY.

KYZ001>023-026-027-061>063-070>075-231800-
WESTERN AND SOUTH CENTRAL KENTUCKY

CITY           SKY/WX    TMP DP  RH WIND       PRES   REMARKS
PADUCAH        MOSUNNY   88  66  48 NE6       30.06F HX  90
HENDERSON      SUNNY     87  67  51 NE8       30.09F HX  90
OWENSBORO      SUNNY     87  65  47 E7        30.09F
HOPKINSVILLE   NOT AVBL
BOWLING GREEN  SUNNY     86  70  58 NE6       30.09F HX  90
GLASGOW        SUNNY     85  65  52 NE5       30.10F
$$

KYZ024-025-028>034-038-045-046-053-231800-
NORTH CENTRAL KENTUCKY

CITY           SKY/WX    TMP DP  RH WIND       PRES   REMARKS
LOUISVILLE/SDF MOSUNNY   86  65  49 E8        30.10F
LOUISVILLE/LOU SUNNY     86  67  52 VRB5      30.10F
FORT KNOX      NOT AVBL
$$

KYZ035>037-039>044-047>052-055>060-089>105-231800-
NORTHEAST KENTUCKY

CITY           SKY/WX    TMP DP  RH WIND       PRES   REMARKS
LEXINGTON      SUNNY     85  66  53 NE8       30.13F
COVINGTON      MOSUNNY   85  66  53 E7        30.13F
FRANKFORT      SUNNY     86  64  47 E6        30.11F
$$

KYZ054-064>069-076>088-106>120-231800-
SOUTHEAST KENTUCKY

CITY           SKY/WX    TMP DP  RH WIND       PRES   REMARKS
JACKSON        SUNNY     81  64  56 VRB5      30.14F
LONDON         SUNNY     84  64  50 NW5       30.13F
SOMERSET       NOT AVBL
MIDDLESBORO    SUNNY     83  67  58 CALM      30.12F
MONTICELLO     SUNNY     83  66  56 N15       30.13F
$$





USA.gov is the U.S. government's official web portal to all federal, state and local government web resources and services.